Location: Newark
(44.4156°N, 12.1972°E)
Time: 15:30:23
(UTC+00:00)

STARLINK-1089 - Pass Details

Date: 01 February 2020
Orbit: 349 x 350 km, 53.0° (Epoch: 18 February)

Event Time Altitude Azimuth Distance (km) Brightness Sun altitude
Rises 17:26:52 0° 301° (WNW) 2,166 7.4 -12.2°
Reaches altitude 10° 17:28:54 10° 298° (WNW) 1,320 6.3 -12.6°
Maximum altitude 17:31:48 59° 217° (SW) 412 3.2 -13.1°
Enters shadow 17:34:24 12° 138° (SE) 1,196 5.1 -13.6°
